Location: Unspecified
(44.4377°N, 88.0525°W)
Time: 12:40:53
(UTC-05:00)

Cosmos 2058 - Visible Passes

Search period start: 24 May 2017 00:00
Search period end: 03 June 2017 00:00
Orbit: 563 x 586 km, 82.5° (Epoch: 24 May)

Date Brightness Start Highest point End Pass type
(mag) Time Alt. Az. Time Alt. Az. Time Alt. Az.
24 May 4.9 02:18:11 16° ESE 02:19:59 21° E 02:23:05 10° NE visible
24 May 3.9 03:54:25 18° SW 03:56:43 31° WNW 04:00:26 10° N visible
25 May 4.5 02:21:42 21° SE 02:23:17 27° E 02:26:46 10° NNE visible
25 May 4.3 03:57:56 16° WSW 04:00:11 24° WNW 04:03:35 10° NNW visible
26 May 4.1 02:25:12 28° SE 02:26:34 36° E 02:30:22 10° NNE visible
26 May 4.6 04:01:26 13° WSW 04:03:39 19° WNW 04:06:38 10° NNW visible
27 May 3.5 02:28:41 36° SE 02:29:54 48° E 02:33:53 10° NNE visible
27 May 4.9 04:04:55 10° WSW 04:07:09 15° WNW 04:09:32 10° NNW visible
28 May 3.1 02:32:09 45° SSE 02:33:15 65° E 02:37:21 10° NNE visible
28 May 5.1 04:09:17 10° W 04:10:40 11° WNW 04:12:04 10° NW visible
29 May 2.8 02:35:36 51° S 02:36:36 88° E 02:40:45 10° N visible
30 May 2.9 02:39:02 49° SW 02:39:59 69° W 02:44:07 10° N visible
31 May 5.3 01:06:14 13° E 01:06:56 13° E 01:08:55 10° NE visible
31 May 3.2 02:42:27 42° WSW 02:43:22 51° WNW 02:47:26 10° N visible
01 Jun 4.9 01:09:38 17° E 01:10:11 17° E 01:12:56 10° NE visible
01 Jun 3.6 02:45:52 33° WSW 02:46:48 38° WNW 02:50:42 10° N visible
02 Jun 4.6 01:13:02 22° E 01:13:27 23° E 01:16:42 10° NE visible
02 Jun 4.0 02:49:15 26° W 02:50:13 29° WNW 02:53:53 10° NNW visible
